{"data":{"norad_id":57461,"intl_designator":"2023-107E","name":"STARLINK-30229","alt_names":[],"object_type":"PAYLOAD","status":"ACTIVE","operator":null,"country":"US","launch_date":"2023-07-28","launch_site_code":"AFETR","launch_vehicle":null,"mission":null,"orbit_class":"UNKNOWN","rcs_meters":null,"size_class":null,"mass_kg":null,"dimensions":null,"purposes":["comms"],"wikipedia_slug":null,"has_3d_model":false,"image_url":null,"decayed_at":null,"tle_current":{"epoch":"2026-05-24T19:42:54.471456Z","epoch_age_seconds":97234,"freshness":"FRESH","line1":"1 57461U 23107E   26144.82146379  .00003907  00000+0  15134-3 0  9998","line2":"2 57461  43.0018 273.5588 0001945 253.3630 106.7009 15.27602853156701","mean_motion":15.27602853,"eccentricity":0.0001945,"inclination_deg":43.0018,"raan_deg":273.5588,"arg_perigee_deg":253.363,"mean_anomaly_deg":106.7009,"bstar":0.00015134,"rev_number":15670,"period_min":94.265338479307,"perigee_km":481.64617940324,"apogee_km":484.31515417562,"semimajor_km":6861.1176667894,"source":"CELESTRAK","updated_at":"2026-05-25T13:38:18.323885Z"}}}